Location: Spruce Knob
(38.6995°N, 79.5330°W)
Time: 20:42:41
(UTC-04:00)

Transit 2A - Pass Details

Date: 12 August 2022
Orbit: 601 x 956 km, 66.7° (Epoch: 27 September)

Event Time Altitude Azimuth Distance (km) Brightness Sun altitude
Rises 22:56:47 0° 309° (NW) 2,876 10.2 -26.6°
Reaches altitude 10° 23:00:00 10° 284° (WNW) 2,001 8.8 -27.0°
Maximum altitude 23:02:16 14° 253° (WSW) 1,786 8.1 -27.3°
Enters shadow 23:03:18 13° 238° (WSW) 1,851 8.0 -27.4°
